User: anonymous   Login
Location: Unspecified
(0.0000°N, 0.0000°E)
Time: 20:04:46
(UTC+00:00)
Language:

STARLINK-35973 - Orbit

View from above orbital plane
View from above orbital plane
View from above satellite
View from above satellite

Ground track
Ground track

The orbit is defined by the following mean orbital elements,

1 66632U          26145.27186066 +.00000000 +00000-0 +72293-3 0 00006
2 66632  53.1586 142.6697 0001048  81.5226 278.5896 15.34402143    07
Epoch (UTC): 25 May 2026 06:31:28
Eccentricity: 0.0001048
inclination: 53.1586°
perigee height: 462 km
apogee height: 463 km
right ascension of ascending node: 142.6697°
argument of perigee: 81.5226°
revolutions per day: 15.34402143
mean anomaly at epoch: 278.5896°

The dashed part of the orbit path shows where the satellite is in the earth's shadow,  

DLR